Content
SEND FEEDBACK

Daily
Averages
Monthly
Summary
United States of America

CEDAR POINT, COLORADO


Home > North America > United States > Colorado
Elevation: 5597 feet     Latitude: 39 12N     Longitude: 103 44W

WEATHER
 
SELECT A DAY
Number of Records: 191,903;   Date Range: 1/1/95 - 8/30/14
 
SHARE

PRINT THIS DATA

[ ← Previous Day ]
WEATHER ALMANAC - JANUARY 31, 2013
[ Next Day → ]
[ °C ]   °F
Weather ElementAverageHighLow
Temperature24.1 °F39 °F (2:55 pm)8.1 °F (6:55 am)
Dewpoint16.2 °F24.1 °F (1:55 pm)5 °F (6:55 am)
Humidity73.1 %88 % (7:55 am)53 % (12:55 pm)
Barometer30.17 in30.28 in (6:55 pm)29.99 in (3:55 am)
Wind Speed5.5 mph11.5 mph (6:55 pm)
Weather ElementAverage
Visibility10 mi
Wind DirectionSSE (162.6 °)

Weather ElementTotal
Precipitation---
Heating Degree Days41.5 (Base 65)
Averaged from 23 records on January 31, 2013
WEATHER CONDITIONS BREAKOUT
WIND DIRECTION BREAKOUT
WEATHER BY HOUR - JANUARY 31, 2013
[ °C ]   °F
Local TimeTemperatureDewpointHumidityBarometerVisibilityWind DirectionWind SpeedGust SpeedPrecipitationEventsConditions
1:55 AM10.9 °F6.1 °F81 %30.01 in10.0 miNorth (350°)4.6 mphClear
2:55 AM10.0 °F6.1 °F84 %30.01 in10.0 miNorth (360°)4.6 mphClear
3:55 AM17.1 °F9.0 °F71 %29.99 in10.0 miNorth (360°)3.5 mphMostly Cloudy
4:55 AM14.0 °F9.0 °F80 %30.05 in10.0 miNNW (330°)8.1 mphPartly Cloudy
5:55 AM10.9 °F7.0 °F84 %30.12 in10.0 miNW (320°)3.5 mphClear
6:55 AM8.1 °F5.0 °F87 %30.19 in10.0 miCalmClear
7:55 AM18.0 °F15.1 °F88 %30.18 in10.0 miCalmClear
8:55 AM24.1 °F18.0 °F77 %30.21 in10.0 miWest (280°)4.6 mphPartly Cloudy
9:55 AM26.1 °F19.0 °F75 %30.23 in10.0 miWNW (290°)4.6 mphClear
10:55 AM28.9 °F19.9 °F69 %30.20 in10.0 miWest (270°)5.8 mphClear
11:55 AM34.0 °F23.0 °F64 %30.18 in10.0 miWest (280°)5.8 mphClear
12:55 PM37.9 °F21.9 °F53 %30.14 in10.0 miNorth (10°)10.4 mphClear
1:55 PM37.9 °F24.1 °F57 %30.15 in10.0 miNE (50°)9.2 mphClear
2:55 PM39.0 °F24.1 °F55 %30.17 in10.0 miENE (70°)8.1 mphClear
3:55 PM39.0 °F24.1 °F55 %30.15 in10.0 miEast (80°)8.1 mphClear
4:55 PM36.0 °F21.9 °F57 %30.19 in10.0 miSE (130°)9.2 mphClear
5:55 PM30.9 °F19.9 °F64 %30.24 in10.0 miSE (140°)10.4 mphClear
6:55 PM27.0 °F19.0 °F72 %30.28 in10.0 miSE (140°)11.5 mphClear
7:55 PM23.0 °F18.0 °F81 %30.28 in10.0 miSSE (150°)5.8 mphClear
8:55 PM23.0 °F18.0 °F81 %30.26 in10.0 miCalmClear
9:55 PM23.0 °F16.0 °F74 %30.25 in10.0 miSE (130°)8.1 mphClear
10:55 PM19.0 °F15.1 °F85 %30.25 in10.0 miCalmClear
11:55 PM16.0 °F12.9 °F88 %30.23 in10.0 miCalmClear
Hourly data recorded from KLIC, located miles away from Cedar Point, Colorado







STORIES FROM OUR PARTNERS